AC1IX Weather Reports


time (UTC)temp
F
wind
direction
speed
knots
gust
knots
rain 1hr
in
rain 24hr
in
rain mn
in
humidity
%
barometer
mb
20260510145910 59 308 0.9 0.9 0.00 0.00 0.00 81 1013.2
20260510145407 59 306 0.0 0.0 0.00 0.00 0.00 82 1012.9
20260510144904 59 311 0.9 0.9 0.00 0.00 0.00 82 1013.2
20260510144401 59 301 0.0 0.9 0.00 0.00 0.00 79 1013.0
20260510143900 59 302 0.9 0.9 0.00 0.00 0.00 80 1012.9
20260510143357 60 302 0.0 0.0 0.00 0.00 0.00 82 1012.7
20260510142854 60 293 0.0 0.0 0.00 0.00 0.00 79 1012.9
20260510142350 62 139 1.7 1.7 0.00 0.00 0.00 75 1012.8
20260510141847 63 290 0.0 0.0 0.00 0.00 0.00 76 1013.0
20260510141345 63 295 0.9 0.9 0.00 0.00 0.00 73 1013.0
20260510140842 62 293 0.9 0.9 0.00 0.00 0.00 75 1012.9
20260510140338 62 283 0.9 0.9 0.00 0.00 0.00 75 1013.0
20260510135837 61 267 0.0 0.9 0.00 0.00 0.00 78 1012.7
20260510135333 60 293 0.0 0.0 0.00 0.00 0.00 82 1012.5
20260510134831 60 293 0.9 0.9 0.00 0.00 0.00 81 1012.4
20260510134327 60 290 0.0 0.9 0.00 0.00 0.00 80 1012.3
20260510133823 60 272 0.9 0.9 0.00 0.00 0.00 79 1012.2
20260510133319 59 294 0.0 0.0 0.00 0.00 0.00 84 1012.3
20260510132815 59 294 0.0 0.0 0.00 0.00 0.00 86 1012.3
20260510132314 58 290 0.0 0.9 0.00 0.00 0.00 84 1012.4
20260510131810 57 292 0.0 0.9 0.00 0.00 0.00 85 1012.5
20260510131308 58 300 0.0 0.0 0.00 0.00 0.00 85 1012.5
20260510130804 58 300 1.7 1.7 0.00 0.00 0.00 84 1012.4
20260510130301 59 272 1.7 1.7 0.00 0.00 0.00 81 1012.5
20260510125757 59 297 0.0 0.0 0.00 0.00 0.00 84 1012.5
20260510125253 59 295 0.9 0.9 0.00 0.00 0.00 86 1012.5
20260510124750 58 284 0.0 0.0 0.00 0.00 0.00 84 1012.3
20260510124248 57 295 0.0 0.0 0.00 0.00 0.00 85 1012.5
20260510123743 56 297 0.0 0.0 0.00 0.00 0.00 90 1012.3
20260510123239 55 296 0.0 0.0 0.00 0.00 0.00 90 1012.4
20260510122736 55 298 0.9 0.9 0.00 0.00 0.00 93 1012.4
20260510122232 54 285 0.0 0.9 0.00 0.00 0.00 93 1012.4
20260510121728 54 292 0.0 0.0 0.00 0.00 0.00 94 1012.4
20260510121226 53 299 0.9 0.9 0.00 0.00 0.00 99 1012.3
20260510120723 51 300 0.9 0.9 0.00 0.00 0.00 99 1012.2
20260510120220 51 286 0.0 0.9 0.00 0.00 0.00 99 1012.5
20260510115715 51 300 0.0 0.9 0.00 0.00 0.00 99 1012.3
20260510115214 51 289 0.0 0.0 0.00 0.00 0.00 99 1012.3
20260510114708 51 289 0.0 0.0 0.00 0.00 0.00 99 1012.3
20260510114206 51 297 0.0 0.0 0.00 0.00 0.00 99 1012.4
20260510113700 51 291 0.0 0.0 0.00 0.00 0.00 99 1012.5
20260510113158 51 295 0.0 0.0 0.00 0.00 0.00 99 1012.5
20260510112655 51 295 0.0 0.0 0.00 0.00 0.00 99 1012.5
20260510112152 50 294 0.0 0.0 0.00 0.00 0.00 99 1012.6
20260510111647 49 296 0.0 0.0 0.00 0.00 0.00 99 1012.5
20260510111144 49 294 0.0 0.0 0.00 0.00 0.00 99 1012.4
20260510110639 48 297 0.0 0.0 0.00 0.00 0.00 99 1012.4
20260510110137 48 294 0.0 0.0 0.00 0.00 0.00 99 1012.3
20260510105633 47 294 0.0 0.0 0.00 0.00 0.00 99 1012.1
20260510105132 47 293 0.0 0.0 0.00 0.00 0.00 99 1012.1
20260510104629 47 293 0.0 0.0 0.00 0.00 0.00 99 1012.0
20260510104126 47 295 0.0 0.0 0.00 0.00 0.00 99 1011.8
20260510103623 47 297 0.0 0.0 0.00 0.00 0.00 99 1011.8
20260510103119 47 290 0.0 0.0 0.00 0.00 0.00 99 1011.7
20260510102614 46 293 0.0 0.0 0.00 0.00 0.00 99 1011.6
20260510102110 46 295 0.0 0.0 0.00 0.00 0.00 99 1011.6
20260510101608 47 294 0.0 0.0 0.00 0.00 0.00 99 1011.7
20260510101106 46 298 0.0 0.0 0.00 0.00 0.00 99 1011.6
20260510100602 46 295 0.0 0.0 0.00 0.00 0.00 99 1011.4
20260510100100 46 296 0.0 0.0 0.00 0.00 0.00 99 1011.5
20260510095555 46 293 0.0 0.0 0.00 0.00 0.00 99 1011.3
20260510095050 46 294 0.0 0.0 0.00 0.00 0.00 99 1011.2
20260510094549 46 292 0.0 0.0 0.00 0.00 0.00 99 1011.1
20260510094045 46 288 0.0 0.0 0.00 0.00 0.00 99 1011.1
20260510093542 46 293 0.0 0.0 0.00 0.00 0.00 99 1011.1
20260510093038 46 294 0.0 0.0 0.00 0.00 0.00 99 1010.7
20260510092536 46 293 0.0 0.0 0.00 0.00 0.00 99 1010.4
20260510092035 46 293 0.0 0.0 0.00 0.00 0.00 99 1010.7
20260510091532 46 292 0.0 0.0 0.00 0.00 0.00 99 1011.1
20260510091028 47 295 0.0 0.0 0.00 0.00 0.00 99 1011.1
20260510090525 47 292 0.0 0.0 0.00 0.00 0.00 99 1010.9
20260510090021 47 295 0.0 0.0 0.00 0.00 0.00 99 1011.2
20260510085521 47 292 0.0 0.0 0.00 0.00 0.00 99 1011.2
20260510085017 47 294 0.0 0.0 0.00 0.00 0.00 99 1010.9
20260510084514 47 294 0.0 0.0 0.00 0.00 0.00 99 1010.6
20260510084011 48 294 0.0 0.0 0.00 0.00 0.00 99 1010.7
20260510083508 48 293 0.0 0.0 0.00 0.00 0.00 99 1010.7
20260510083003 48 293 0.0 0.0 0.00 0.00 0.00 99 1010.5
20260510082501 48 295 0.0 0.0 0.00 0.00 0.00 99 1010.5
20260510082000 48 279 0.0 0.9 0.00 0.00 0.00 99 1010.4
20260510081456 48 294 0.0 0.0 0.00 0.00 0.00 99 1011.1
20260510080952 48 294 0.0 0.0 0.00 0.00 0.00 99 1010.9
20260510080451 49 292 0.0 0.0 0.00 0.00 0.00 99 1011.1
20260510075948 49 284 0.0 0.9 0.00 0.00 0.00 99 1011.6
20260510075446 49 293 0.0 0.0 0.00 0.00 0.00 99 1011.7
20260510074942 49 285 0.0 0.0 0.00 0.00 0.00 99 1011.8
20260510074440 49 295 0.0 0.0 0.00 0.00 0.00 99 1012.0
20260510073936 49 295 0.0 0.0 0.00 0.00 0.00 99 1011.8
20260510073431 49 284 0.0 0.9 0.00 0.00 0.00 99 1011.7
20260510072928 49 297 0.0 0.0 0.00 0.00 0.00 99 1011.7
20260510072425 49 296 0.0 0.0 0.00 0.00 0.00 99 1011.7
20260510071920 49 293 0.0 0.0 0.00 0.00 0.00 99 1011.7
20260510071417 49 292 0.0 0.0 0.00 0.00 0.00 99 1011.5
20260510070916 49 278 0.9 0.9 0.00 0.00 0.00 99 1011.5
20260510070412 49 295 0.0 0.0 0.00 0.00 0.00 99 1011.4
20260510065907 48 293 0.0 0.0 0.00 0.00 0.00 99 1011.2
20260510065404 48 296 0.0 0.0 0.00 0.00 0.00 99 1011.2
20260510064901 48 293 0.0 0.0 0.00 0.00 0.00 99 1011.0
20260510064359 48 293 0.0 0.0 0.00 0.00 0.00 99 1011.2
20260510063855 48 295 0.0 0.0 0.00 0.00 0.00 99 1011.2
20260510063351 48 291 0.0 0.0 0.00 0.00 0.00 99 1010.9
20260510062848 48 295 0.0 0.0 0.00 0.00 0.00 99 1010.9
20260510062343 48 296 0.0 0.0 0.00 0.00 0.00 99 1010.7
20260510061839 48 291 0.0 0.0 0.00 0.00 0.00 99 1010.7
20260510061336 47 294 0.0 0.0 0.00 0.00 0.00 99 1010.9
20260510060832 47 294 0.0 0.0 0.00 0.00 0.00 99 1011.0
20260510060330 48 292 0.0 0.0 0.00 0.00 0.00 99 1011.0
20260510055826 47 293 0.0 0.0 0.00 0.00 0.00 99 1011.2
20260510055325 48 295 0.0 0.0 0.00 0.00 0.00 99 1011.5
20260510054825 47 293 0.0 0.0 0.00 0.00 0.00 99 1011.1
20260510054320 48 292 0.0 0.0 0.00 0.00 0.00 99 1011.3
20260510053816 48 292 0.0 0.9 0.00 0.00 0.00 99 1011.3
20260510053311 48 293 0.0 0.0 0.00 0.00 0.00 99 1011.1
20260510052808 48 291 0.0 0.0 0.00 0.00 0.00 99 1011.2
20260510052306 48 286 0.0 0.9 0.00 0.00 0.00 99 1011.1
20260510051800 48 292 0.0 0.0 0.00 0.00 0.00 99 1011.1
20260510051257 48 294 0.0 0.0 0.00 0.00 0.00 99 1011.4
20260510050753 48 294 0.0 0.0 0.00 0.00 0.00 99 1011.2
20260510050250 48 249 0.9 0.9 0.00 0.00 0.00 99 1011.3
20260510045748 48 293 0.0 0.0 0.00 0.00 0.00 99 1011.5
20260510045244 48 294 0.0 0.0 0.00 0.00 0.00 99 1011.5
20260510044741 48 293 0.0 0.0 0.00 0.00 0.00 99 1011.3
20260510044239 48 293 0.0 0.0 0.00 0.00 0.00 99 1011.5
20260510043733 48 288 0.0 0.0 0.00 0.00 0.00 99 1011.3
20260510043231 48 296 0.0 0.0 0.00 0.00 0.00 99 1011.4
20260510042728 48 293 0.0 0.0 0.00 0.00 0.00 99 1011.2
20260510042223 48 332 0.9 1.7 0.00 0.00 0.00 99 1011.3
20260510041721 48 293 0.0 0.0 0.00 0.00 0.00 99 1011.2
20260510041218 48 295 0.0 0.0 0.00 0.00 0.00 99 1011.2
20260510040715 48 295 0.0 0.0 0.00 0.00 0.00 99 1011.1
20260510040212 48 295 0.0 0.9 0.00 0.00 0.00 99 1011.4
20260510035707 48 291 0.0 0.0 0.00 0.56 0.56 99 1011.2
20260510035203 48 280 0.9 0.9 0.00 0.56 0.56 99 1011.2
20260510034659 48 292 0.0 0.0 0.00 0.56 0.56 99 1011.1
20260510034156 49 301 0.0 0.9 0.00 0.56 0.56 99 1011.1
20260510033653 49 297 0.0 0.0 0.00 0.56 0.56 99 1011.0
20260510033151 49 268 0.9 0.9 0.00 0.56 0.56 99 1011.3
20260510032647 49 290 0.0 0.0 0.00 0.56 0.56 99 1011.5
20260510032142 49 292 0.0 0.0 0.00 0.56 0.56 99 1011.5
20260510031638 48 293 0.0 0.0 0.00 0.56 0.56 99 1011.6
20260510031135 48 293 0.0 0.0 0.00 0.56 0.56 99 1011.5
20260510030634 48 294 0.0 0.0 0.00 0.56 0.56 99 1011.6
20260510030132 48 291 0.0 0.0 0.00 0.56 0.56 99 1011.5
20260510025629 48 288 0.0 0.0 0.00 0.56 0.56 99 1011.5
20260510025126 48 292 0.0 0.0 0.00 0.56 0.56 99 1011.3
20260510024623 48 293 0.0 0.0 0.00 0.56 0.56 99 1011.4
20260510024120 48 295 0.0 0.0 0.00 0.56 0.56 99 1011.4
20260510023616 48 292 0.0 0.0 0.00 0.56 0.56 99 1011.6
20260510023114 48 293 0.0 0.9 0.00 0.56 0.56 99 1011.5
20260510022613 48 293 0.0 0.0 0.00 0.56 0.56 99 1011.4
20260510022108 48 294 0.0 0.0 0.00 0.56 0.56 99 1011.5
20260510021604 48 293 0.0 0.0 0.00 0.56 0.56 99 1011.3
20260510021103 48 296 1.7 1.7 0.00 0.56 0.56 99 1011.3
20260510020601 48 291 0.0 0.0 0.00 0.56 0.56 99 1011.1
20260510020057 48 292 0.0 0.0 0.00 0.56 0.56 99 1011.4
20260510015554 49 296 0.0 0.0 0.00 0.56 0.56 99 1011.5
20260510015050 49 294 0.0 0.0 0.00 0.56 0.56 99 1011.5
20260510014546 49 295 0.0 0.0 0.00 0.56 0.56 99 1011.5
20260510014044 49 298 0.0 0.9 0.00 0.56 0.56 99 1012.0
20260510013538 49 298 0.0 0.9 0.00 0.56 0.56 99 1011.8
20260510013035 49 280 0.0 0.9 0.00 0.56 0.56 99 1011.6
20260510012533 49 299 0.0 0.0 0.00 0.56 0.56 99 1011.6
20260510012031 49 293 0.0 0.0 0.00 0.56 0.56 99 1011.7
20260510011530 49 294 0.0 0.0 0.00 0.56 0.56 99 1011.5
20260510011026 49 294 0.0 0.0 0.00 0.56 0.56 99 1011.4
20260510010523 49 293 0.0 0.0 0.00 0.56 0.56 99 1011.6
20260510010020 49 294 0.0 0.0 0.00 0.56 0.56 99 1011.6
20260510005515 49 292 0.0 0.0 0.00 0.56 0.56 98 1011.5
20260510005013 50 290 0.9 0.9 0.00 0.56 0.56 98 1011.3
20260510004511 49 330 2.6 2.6 0.00 0.56 0.56 99 1011.1
20260510004009 50 301 0.0 0.0 0.00 0.56 0.56 98 1011.1
20260510003505 50 296 0.0 0.0 0.00 0.56 0.56 97 1011.0
20260510003000 50 281 0.0 0.9 0.00 0.56 0.56 97 1010.7
20260510002456 50 294 0.0 0.0 0.00 0.56 0.56 97 1010.5
20260510001953 50 293 0.0 0.0 0.00 0.56 0.56 97 1010.7
20260510001450 50 297 0.0 0.0 0.00 0.56 0.56 97 1010.6
20260510000948 50 288 0.0 0.0 0.00 0.56 0.56 96 1010.6
20260510000444 50 292 0.0 0.0 0.00 0.56 0.56 97 1010.5
20260509235940 50 287 2.6 2.6 0.00 0.56 0.56 97 1010.5
20260509235437 50 298 0.0 0.0 0.00 0.56 0.56 99 1010.4
20260509234933 50 282 0.0 0.9 0.00 0.56 0.56 98 1010.2
20260509234430 51 285 0.9 0.9 0.00 0.56 0.56 98 1010.3
20260509233929 50 281 0.9 1.7 0.00 0.56 0.56 97 1010.3
20260509233426 51 295 0.0 0.0 0.00 0.56 0.56 98 1010.2
20260509232922 51 288 0.0 0.9 0.00 0.56 0.56 98 1010.1
20260509232420 51 294 0.0 0.0 0.00 0.56 0.56 99 1010.0
20260509231915 51 284 0.9 0.9 0.00 0.56 0.56 99 1010.2
20260509231412 51 281 1.7 2.6 0.00 0.56 0.56 99 1010.3
20260509230910 51 292 0.0 0.0 0.00 0.56 0.56 99 1010.0
20260509230407 51 316 0.9 0.9 0.00 0.56 0.56 99 1010.2
20260509225902 51 292 0.0 0.0 0.00 0.56 0.56 99 1010.3
20260509225359 51 300 0.0 0.0 0.00 0.56 0.56 99 1010.2
20260509224855 51 295 0.0 0.0 0.00 0.56 0.56 99 1010.1
20260509224351 51 291 0.0 0.0 0.00 0.56 0.56 99 1010.2
20260509223849 51 297 0.0 0.0 0.00 0.56 0.56 99 1010.5
20260509223345 51 295 0.0 0.0 0.00 0.56 0.56 99 1010.1
20260509222842 51 292 0.0 0.0 0.00 0.56 0.56 99 1010.2
20260509222337 51 294 0.0 0.9 0.00 0.56 0.56 99 1010.2
20260509221833 51 295 0.0 0.0 0.00 0.56 0.56 99 1010.4
20260509221331 50 295 0.0 0.0 0.00 0.56 0.56 99 1010.2
20260509220831 50 296 0.0 0.0 0.00 0.56 0.56 99 1010.5
20260509220327 50 292 0.0 0.0 0.00 0.56 0.56 99 1010.3
20260509215823 51 308 0.0 0.0 0.00 0.56 0.56 99 1010.5
20260509215320 51 289 0.0 0.0 0.00 0.56 0.56 99 1010.6
20260509214817 50 292 0.0 0.0 0.00 0.56 0.56 99 1010.5
20260509214314 50 292 0.0 0.0 0.00 0.56 0.56 99 1010.4
20260509213811 50 292 0.0 0.0 0.00 0.56 0.56 99 1010.5
20260509213306 50 300 0.0 0.0 0.00 0.56 0.56 99 1010.5
20260509212804 50 289 0.9 0.9 0.00 0.56 0.56 99 1010.6
20260509212305 50 248 0.9 0.9 0.00 0.56 0.56 99 1010.7
20260509211756 50 298 0.0 0.0 0.00 0.56 0.56 99 1011.0
20260509211253 50 286 0.0 0.0 0.00 0.56 0.56 99 1010.9
20260509210750 50 295 0.0 0.0 0.00 0.56 0.56 99 1010.9
20260509210248 50 287 0.9 0.9 0.00 0.56 0.56 99 1010.9
20260509205747 50 301 0.0 0.0 0.00 0.56 0.56 99 1011.2
20260509205242 50 298 0.0 0.0 0.00 0.56 0.56 99 1011.0
20260509204738 49 307 0.0 0.0 0.00 0.56 0.56 99 1011.4
20260509204235 49 296 0.0 0.0 0.00 0.56 0.56 99 1011.1
20260509203730 49 289 0.0 0.9 0.00 0.56 0.56 99 1011.3
20260509203229 49 289 0.0 0.0 0.00 0.56 0.56 99 1011.3
20260509202724 49 298 0.0 0.0 0.00 0.56 0.56 99 1011.5
20260509202220 49 288 0.9 0.9 0.00 0.56 0.56 99 1011.5
20260509201715 49 284 0.9 0.9 0.00 0.56 0.56 99 1011.5
20260509201212 49 288 0.9 0.9 0.00 0.56 0.56 99 1011.6
20260509200708 49 289 0.0 0.0 0.00 0.56 0.56 99 1011.5
20260509200203 49 291 1.7 1.7 0.00 0.56 0.56 99 1011.7
20260509195659 49 291 0.0 0.0 0.05 0.56 0.56 99 1011.4
20260509195155 49 286 0.0 0.0 0.05 0.56 0.56 99 1011.6
20260509194655 49 294 0.0 0.0 0.00 0.55 0.55 99 1011.4
20260509194152 49 297 0.0 0.0 0.07 0.55 0.55 99 1011.7
20260509193648 48 297 0.0 0.0 0.07 0.55 0.55 99 1011.7
20260509193143 48 298 0.0 0.0 0.05 0.54 0.54 99 1011.7
20260509192640 48 294 0.0 0.0 0.12 0.54 0.54 99 1011.9
20260509192135 48 297 0.0 0.0 0.12 0.53 0.53 99 1011.6
20260509191635 48 284 0.0 0.0 0.05 0.52 0.52 99 1011.7
20260509191132 48 308 0.9 0.9 0.07 0.51 0.51 99 1011.6
20260509190629 48 288 0.0 0.0 0.14 0.51 0.51 99 1011.7
20260509190126 48 297 0.0 0.0 0.12 0.50 0.50 99 1011.7
20260509185624 48 300 0.0 0.0 0.05 0.49 0.49 99 1011.7
20260509185119 48 299 0.0 0.0 0.07 0.48 0.48 99 1011.7
20260509184618 48 296 0.0 0.0 0.12 0.48 0.48 99 1012.0
20260509184114 47 297 0.0 0.0 0.12 0.47 0.47 99 1011.9
20260509183610 48 301 0.0 0.0 0.12 0.46 0.46 99 1012.0
20260509183106 47 294 0.0 0.0 0.17 0.45 0.45 99 1012.0
20260509182602 47 298 0.9 0.9 0.12 0.44 0.44 99 1012.1
20260509182059 47 296 0.0 0.0 0.07 0.42 0.42 99 1012.2
20260509181558 48 290 0.0 0.9 0.12 0.42 0.42 99 1012.1
20260509181054 47 292 0.0 0.0 0.05 0.41 0.41 99 1012.0
20260509180550 47 288 0.0 0.0 0.07 0.40 0.40 99 1012.2
20260509180048 47 295 0.0 0.0 0.14 0.40 0.40 99 1012.2
20260509175543 47 294 0.0 0.0 0.12 0.39 0.39 99 1012.3
20260509175040 47 298 0.0 0.0 0.05 0.38 0.38 99 1012.3
20260509174536 47 297 0.0 0.0 0.07 0.37 0.37 99 1012.3
20260509174032 47 294 0.0 0.0 0.07 0.37 0.37 99 1012.4
20260509173526 47 293 0.0 0.0 0.05 0.36 0.36 99 1012.5
20260509173023 47 295 0.0 0.0 0.12 0.36 0.36 99 1012.2
20260509172520 47 298 0.0 0.0 0.07 0.35 0.35 99 1012.5
20260509172016 47 293 0.0 0.0 0.05 0.34 0.34 99 1012.4
20260509171512 47 293 0.0 0.0 0.05 0.34 0.34 99 1012.5
20260509171009 47 294 0.0 0.0 0.07 0.33 0.33 99 1012.6
20260509170504 47 296 0.0 0.0 0.05 0.32 0.32 99 1012.6
20260509170000 46 295 0.0 0.0 0.05 0.32 0.32 99 1012.7
20260509165459 46 296 0.0 0.0 0.07 0.31 0.31 99 1012.6
20260509164955 46 294 0.0 0.0 0.07 0.31 0.31 99 1012.8
20260509164451 47 293 0.0 0.0 0.05 0.30 0.30 99 1012.8
20260509163947 47 295 0.0 0.0 0.05 0.30 0.30 99 1012.9
20260509163445 46 293 0.0 0.0 0.07 0.29 0.29 99 1012.8
20260509162943 46 291 0.9 0.9 0.07 0.29 0.29 99 1012.9
20260509162443 46 296 0.0 0.0 0.05 0.28 0.28 99 1012.8
20260509161938 46 293 0.0 0.9 0.05 0.28 0.28 99 1012.6
20260509161435 46 293 0.0 0.0 0.07 0.27 0.27 99 1012.8
20260509160930 46 293 0.0 0.0 0.07 0.27 0.27 99 1012.9
20260509160426 45 304 0.0 0.9 0.07 0.26 0.26 99 1012.9
20260509155921 46 286 0.0 0.9 0.07 0.26 0.26 99 1013.1
20260509155418 45 293 0.0 0.0 0.05 0.25 0.25 99 1013.1
20260509154915 45 297 0.0 0.0 0.12 0.25 0.25 99 1013.2
20260509154411 45 297 0.0 0.0 0.07 0.24 0.24 99 1013.2
20260509153908 44 314 1.7 2.6 0.05 0.23 0.23 99 1013.7
20260509153405 44 294 0.9 0.9 0.12 0.23 0.23 99 1013.7
20260509152902 44 296 0.0 0.9 0.07 0.22 0.22 99 1013.6
20260509152358 44 305 0.9 0.9 0.05 0.21 0.21 99 1013.6
20260509151855 44 296 0.0 0.0 0.12 0.21 0.21 99 1013.7
20260509151351 44 303 0.9 0.9 0.12 0.20 0.20 99 1013.7
20260509150850 44 294 0.0 0.0 0.12 0.19 0.19 99 1013.8
20260509150347 44 299 0.0 0.0 0.12 0.18 0.18 99 1013.6